Location: Lecco
(45.8566°N, 9.3977°E)
Time: 12:54:58
(UTC+02:00)

Explorer 11/Cluster Stage 4 - Pass Details

Date: 19 August 2020
Orbit: 467 x 1258 km, 28.8° (Epoch: 24 September)

Event Time Altitude Azimuth Distance (km) Brightness Sun altitude
Rises 22:56:34 0° 246° (WSW) 3,787 10.3 -22.8°
Reaches altitude 10° 23:00:03 10° 229° (SW) 2,963 9.5 -23.1°
Enters shadow 23:03:44 18° 200° (SSW) 2,513 8.8 -23.5°
Maximum altitude 23:04:55 19° 189° (S) 2,503 - -23.7°
Drops below altitude 10° 23:10:06 10° 148° (SSE) 3,195 - -24.2°
Sets 23:14:05 0° 132° (SE) 4,192 - -24.6°
